This demonstration page uses our WeatherBlox Daily Observations layout. Learn more.

Left ArrowRight Arrow

31.84235, -102.49876

Hourly Observations for March 13, 2022

Temp ( °F °C ) Dew Point ( °F °C ) Humidity (%) Winds ( mph kmh ) Pressure ( in mb ) Visibility ( mi km ) Precip ( " mm )
12:53 am 00:53 Clear 43 6.1 2 -16.7 18 18 SSW 17 28 30.14 1021 10 16 0.00 0.00
1:53 am 01:53 Clear 42 5.6 3 -16.1 19 19 SSW 14 22 30.13 1020 10 16 0.00 0.00
3:53 am 03:53 Clear 39 3.9 2 -16.7 21 21 SSW 10 17 30.11 1020 10 16 0.00 0.00
4:53 am 04:53 Clear 36 2.2 2 -16.7 23 23 SSW 7 11 30.09 1019 10 16 0.00 0.00
5:53 am 05:53 Clear 36 2.2 3 -16.1 25 25 SSW 7 11 30.08 1019 10 16 0.00 0.00
6:53 am 06:53 Clear 34 1.1 3 -16.1 27 27 S 7 11 30.09 1019 10 16 0.00 0.00
7:53 am 07:53 Clear 32 0 3 -16.1 29 29 S 7 11 30.10 1019 10 16 0.00 0.00
8:53 am 08:53 Sunny 37 2.8 4 -15.6 25 25 S 8 13 30.11 1020 10 16 0.00 0.00
9:53 am 09:53 Sunny 43 6.1 4 -15.6 20 20 S 12 19 30.11 1020 10 16 0.00 0.00
10:53 am 10:53 Sunny 49 9.4 6 -14.4 17 17 S 14 22 30.10 1019 10 16 0.00 0.00
11:53 am 11:53 Sunny 55 12.8 7 -13.9 14 14 S 15 24 30.08 1019 10 16 0.00 0.00
12:53 pm 12:53 Sunny 60 15.6 8 -13.3 12 12 S 16 26 30.04 1017 10 16 0.00 0.00
1:53 pm 13:53 Sunny 65 18.3 8 -13.3 10 10 S 15 24 30.00 1016 10 16 0.00 0.00
2:53 pm 14:53 Sunny 67 19.4 9 -12.8 10 10 SW 12 19 29.96 1014 10 16 0.00 0.00
3:53 pm 15:53 Sunny 68 20 9 -12.8 10 10 SSW 16 26 29.92 1013 10 16 0.00 0.00
4:53 pm 16:53 Sunny 69 20.6 9 -12.8 9 9 SSW 14 22 29.89 1012 10 16 0.00 0.00
5:53 pm 17:53 Sunny 70 21.1 10 -12.2 10 10 S 18 30 29.88 1012 10 16 0.00 0.00
6:53 pm 18:53 Sunny 68 20 10 -12.2 10 10 S 18 30 29.88 1012 10 16 0.00 0.00
7:53 pm 19:53 Sunny 64 17.8 11 -11.7 12 12 S 18 30 29.88 1012 10 16 0.00 0.00
8:53 pm 20:53 Clear 59 15 13 -10.6 16 16 S 18 30 29.90 1012 10 16 0.00 0.00
9:53 pm 21:53 Clear 57 13.9 15 -9.4 19 19 S 15 24 29.91 1013 10 16 0.00 0.00
10:53 pm 22:53 Clear 55 12.8 18 -7.8 23 23 S 18 30 29.91 1013 10 16 0.00 0.00
11:53 pm 23:53 Clear 53 11.7 24 -4.4 32 32 S 15 24 29.90 1013 10 16 0.00 0.00

Powered by AerisWeather